This is the latest recevied weather packets stored in our database for station/object HA3YA-WX. If no packets are shown the sender has not sent any weather packets the latest 10 day(s).
| Time | Temp. | Humidity | Pressure | Rain* | Wind** | Luminosity | Snow |
|---|---|---|---|---|---|---|---|
| 1776962389 | 18.33° C | 35% | 1002 hPa | - | - | - | - |
| 1776961789 | 18.89° C | 34% | 1002 hPa | - | - | - | - |
| 1776961188 | 19.44° C | 33% | 1002 hPa | - | - | - | - |
| 1776960589 | 20.56° C | 33% | 1002 hPa | - | - | - | - |
| 1776959988 | 21.11° C | 33% | 1002 hPa | - | - | - | - |
| 1776959388 | 21.11° C | 32% | 1001 hPa | - | - | - | - |
| 1776958789 | 21.11° C | 33% | 1001 hPa | - | - | - | - |
| 1776958188 | 21.67° C | 32% | 1002 hPa | - | - | - | - |
| 1776957589 | 21.67° C | 32% | 1002 hPa | - | - | - | - |
| 1776956989 | 21.67° C | 33% | 1002.5 hPa | - | - | - | - |
| 1776956388 | 21.67° C | 33% | 1002.5 hPa | - | - | - | - |
| 1776955789 | 21.67° C | 33% | 1002 hPa | - | - | - | - |
| 1776955188 | 21.11° C | 33% | 1002 hPa | - | - | - | - |
| 1776954588 | 21.11° C | 32% | 1002 hPa | - | - | - | - |
| 1776953988 | 21.67° C | 34% | 1003 hPa | - | - | - | - |
| 1776953389 | 21.11° C | 34% | 1003 hPa | - | - | - | - |
| 1776952789 | 21.11° C | 34% | 1003 hPa | - | - | - | - |
| 1776952189 | 20.56° C | 34% | 1003 hPa | - | - | - | - |
| 1776951589 | 21.11° C | 34% | 1003 hPa | - | - | - | - |
| 1776950988 | 21.11° C | 35% | 1003 hPa | - | - | - | - |
| 1776950388 | 20.56° C | 34% | 1003 hPa | - | - | - | - |
| 1776949788 | 21.11° C | 35% | 1003.9 hPa | - | - | - | - |
| 1776949188 | 21.11° C | 35% | 1003 hPa | - | - | - | - |
| 1776948588 | 21.11° C | 35% | 1004 hPa | - | - | - | - |
| 1776947989 | 21.11° C | 35% | 1004 hPa | - | - | - | - |
* Rain since midnight (hover to see other rain measurements)
** Current wind speed in m/s (hover to see current wind gust speed)